Dublin, Ireland

8:31 PM IST on August 17, 2017 (GMT +0100)
Dublin International

Weather History for EIDW - October, 2011

Change the Weather History Date:

Saturday, October 22, 2011

  Actual Average Record
Temperature  
Mean Temperature 52 °F -  
Max Temperature 55 °F 52 °F 66 °F (1996)
Min Temperature 48 °F 42 °F 33 °F (2003)
Degree Days  
Heating Degree Days 14    
Growing Degree Days 2 (Base 50)    
Moisture  
Dew Point 48 °F    
Average Humidity 81    
Maximum Humidity 100    
Minimum Humidity 59    
Precipitation  
Precipitation 0.03 in 0.09 in - ()
Sea Level Pressure  
Sea Level Pressure 29.67 in    
Wind  
Wind Speed 13 mph ()    
Max Wind Speed 22 mph    
Max Gust Speed 33 mph    
Visibility 7.0 miles    
Events Rain    
Averages and records for this station are not official NWS values.
T = Trace of Precipitation, MM = Missing Value Source: Averaged Metar Reports

Daily Weather History Graph

Daily Weather History Graph

Search for Another Location

Airport or City:

Trip Planner

Search our weather history database for the weather conditions in past years. The results will help you decide how hot, cold, wet, or windy it might be!

Date:

Astronomy

Oct. 22, 2011 Rise Set
Actual Time 8:04 AM IST 6:13 PM IST
Civil Twilight 7:28 AM IST 6:49 PM IST
Nautical Twilight 6:47 AM IST 7:30 PM IST
Astronomical Twilight 6:07 AM IST 8:10 PM IST
Moon 2:03 AM IST (10/22) 4:00 PM IST (10/22)
Length of Visible Light 11h 21m
Length of Day
10h 09m
Waning Crescent, 26% of the Moon is Illuminated
Oct 22
Waning Crescent
Oct 26
New
Nov 2
First Quarter
Nov 10
Full
Nov 18
Last Quarter

Hourly Weather History & Observations

Time (IST) Temp. Dew Point Humidity Pressure Visibility Wind Dir Wind Speed Gust Speed Precip Events Conditions
12:00 AM 53.6 °F 46.4 °F 77% 29.89 in 6.2 mi SSW 13.8 mph - N/A   Mostly Cloudy
12:30 AM 53.6 °F 46.4 °F 77% 29.86 in 6.2 mi SSW 15.0 mph - N/A   Mostly Cloudy
1:00 AM 54 °F 44 °F 59% 29.88 in 19 mi SSW 15.7 mph - -   Mostly Cloudy
1:00 AM 53.6 °F 44.6 °F 72% 29.86 in 6.2 mi SSW 15.0 mph - N/A   Mostly Cloudy
1:30 AM 53.6 °F 42.8 °F 67% 29.86 in 6.2 mi SSW 11.5 mph - N/A   Mostly Cloudy
2:00 AM 53.6 °F 42.8 °F 67% 29.83 in 6.2 mi South 13.8 mph 25.3 mph N/A   Mostly Cloudy
2:30 AM 53.6 °F 44.6 °F 72% 29.83 in 6.2 mi South 10.4 mph 23.0 mph N/A   Mostly Cloudy
3:00 AM 53.6 °F 44.6 °F 72% 29.80 in 6.2 mi SSE 9.2 mph - N/A   Mostly Cloudy
3:30 AM 53.6 °F 44.6 °F 72% 29.80 in 6.2 mi SSE 9.2 mph - N/A   Mostly Cloudy
4:00 AM 53.6 °F 42.8 °F 67% 29.77 in 6.2 mi SSE 9.2 mph - N/A   Scattered Clouds
4:30 AM 53.6 °F 44.6 °F 72% 29.77 in 6.2 mi SSE 13.8 mph - N/A   Mostly Cloudy
5:00 AM 53.6 °F 44.6 °F 72% 29.77 in 6.2 mi South 8.1 mph - N/A   Mostly Cloudy
5:30 AM 53.6 °F 46.4 °F 77% 29.74 in 6.2 mi South 11.5 mph - N/A   Scattered Clouds
6:00 AM 53.6 °F 46.4 °F 77% 29.74 in 6.2 mi South 10.4 mph - N/A   Mostly Cloudy
6:30 AM 53.6 °F 46.4 °F 77% 29.74 in 6.2 mi SSE 11.5 mph - N/A   Mostly Cloudy
7:00 AM 53 °F 48 °F 76% 29.75 in 19 mi South 15.7 mph - - Rain Light Rain
7:00 AM 53.6 °F 48.2 °F 82% 29.74 in 6.2 mi South 16.1 mph - N/A Rain Light Rain
7:30 AM 53.6 °F 48.2 °F 82% 29.74 in 6.2 mi South 16.1 mph - N/A   Mostly Cloudy
8:00 AM 53.6 °F 46.4 °F 77% 29.71 in 6.2 mi South 21.9 mph 33.4 mph N/A   Mostly Cloudy
8:30 AM 53.6 °F 46.4 °F 77% 29.71 in 6.2 mi South 18.4 mph - N/A   Mostly Cloudy
9:00 AM 53.6 °F 46.4 °F 77% 29.71 in 6.2 mi South 15.0 mph - N/A   Mostly Cloudy
9:30 AM 53.6 °F 46.4 °F 77% 29.71 in 6.2 mi South 16.1 mph - N/A   Mostly Cloudy
10:00 AM 53.6 °F 46.4 °F 77% 29.71 in 6.2 mi South 17.3 mph - N/A   Mostly Cloudy
10:30 AM 53.6 °F 46.4 °F 77% 29.68 in 6.2 mi South 16.1 mph - N/A   Mostly Cloudy
11:00 AM 53.6 °F 48.2 °F 82% 29.68 in 6.2 mi South 15.0 mph 27.6 mph N/A   Mostly Cloudy
11:30 AM 53.6 °F 46.4 °F 77% 29.68 in 6.2 mi South 16.1 mph 29.9 mph N/A   Mostly Cloudy
12:00 PM 53.6 °F 48.2 °F 82% 29.68 in 6.2 mi South 16.1 mph - N/A   Mostly Cloudy
12:30 PM 55.4 °F 48.2 °F 77% 29.65 in 6.2 mi South 18.4 mph 29.9 mph N/A   Mostly Cloudy
1:00 PM 54 °F 47 °F 71% 29.65 in 19 mi South 17.9 mph - -   Partly Cloudy
1:00 PM 55.4 °F 46.4 °F 72% 29.65 in 6.2 mi South 17.3 mph - N/A   Mostly Cloudy
1:30 PM 55.4 °F 48.2 °F 77% 29.62 in 6.2 mi South 19.6 mph - N/A   Mostly Cloudy
2:00 PM 53.6 °F 48.2 °F 82% 29.62 in 6.2 mi South 20.7 mph - N/A   Mostly Cloudy
2:30 PM 53.6 °F 48.2 °F 82% 29.59 in 6.2 mi South 19.6 mph - N/A Rain Light Rain
3:00 PM 53.6 °F 50.0 °F 88% 29.59 in 6.2 mi SSE 18.4 mph - N/A   Mostly Cloudy
3:30 PM 53.6 °F 50.0 °F 88% 29.56 in 6.2 mi SSE 18.4 mph - N/A Rain Light Rain
4:00 PM 55.4 °F 50.0 °F 82% 29.56 in 6.2 mi SSE 16.1 mph - N/A   Mostly Cloudy
4:30 PM 55.4 °F 50.0 °F 82% 29.53 in 6.2 mi South 18.4 mph - N/A Rain Light Rain Showers
5:00 PM 55.4 °F 50.0 °F 82% 29.53 in 6.2 mi South 19.6 mph - N/A Rain Light Rain Showers
5:30 PM 53.6 °F 51.8 °F 94% 29.53 in 6.2 mi South 16.1 mph - N/A Rain Light Rain
6:00 PM 53.6 °F 51.8 °F 94% 29.53 in 6.2 mi SSE 13.8 mph - N/A Rain Light Rain
6:30 PM 53.6 °F 51.8 °F 94% 29.53 in 6.2 mi South 11.5 mph - N/A Rain Light Rain
7:00 PM 54 °F 52 °F 90% 29.54 in 9 mi South 8.9 mph - - Rain Light Rain
7:00 PM 53.6 °F 51.8 °F 94% 29.53 in 6.2 mi South 9.2 mph - N/A Rain Light Rain
7:30 PM 53.6 °F 51.8 °F 94% 29.53 in 6.2 mi South 8.1 mph - N/A   Mostly Cloudy
8:00 PM 55.4 °F 51.8 °F 88% 29.53 in 6.2 mi SW 11.5 mph - N/A Rain Light Rain Showers
8:30 PM 51.8 °F 50.0 °F 94% 29.53 in 5.6 mi West 10.4 mph - N/A Rain Light Rain Showers
9:00 PM 51.8 °F 50.0 °F 94% 29.53 in 6.2 mi WSW 10.4 mph - N/A Rain Light Rain Showers
9:30 PM 50.0 °F 50.0 °F 100% 29.53 in 6.2 mi WSW 6.9 mph - N/A Rain Light Rain
10:00 PM 50.0 °F 48.2 °F 94% 29.53 in 6.2 mi WSW 6.9 mph - N/A   Mostly Cloudy
11:00 PM 48.2 °F 46.4 °F 93% 29.53 in 6.2 mi SSW 5.8 mph - N/A   Mostly Cloudy
11:30 PM 48.2 °F 46.4 °F 93% 29.53 in 6.2 mi SSW 5.8 mph - N/A   Mostly Cloudy